Regional Weather Roundup
Issued by NWS

Home | Current Version | Previous Version | Graphics & Text | Print | Product List | Glossary Off
Versions: 1 2 3 4 5 6 7 8 9 10 11 12 13 14 15 16 17 18 19 20 21 22 23 24 25 26 27 28 29 30 31 32 33 34 35 36 37 38 39 40 41 42 43 44 45 46 47 48 49 50

000
ASUS43 KMPX 201110
RWRMN
WEATHER ROUNDUP FOR MINNESOTA
NATIONAL WEATHER SERVICE TWIN CITIES/CHANHASSEN MN
600 AM CDT THU JUL 20 2017


NOTE: "FAIR" INDICATES FEW OR NO CLOUDS BELOW 12,000 FEET WITH NO
SIGNIFICANT WEATHER AND/OR OBSTRUCTIONS TO VISIBILITY. N/A MEANS
CURRENT SKY AND/OR WEATHER CONDITIONS ARE NOT AVAILABLE.

MNZ060>063-068>070-201200-
   Twin Cities Metro

CITY           SKY/WX    TMP DP  RH WIND       PRES   REMARKS
TWIN CITIES    PTCLDY    68  66  93 CALM      29.98R
ST PAUL        CLEAR     67  67 100 N3        29.98R FOG
CRYSTAL        FOG       64  62  93 CALM      29.97R VSB<1/4
BLAINE         FOG       66  66 100 CALM      29.98R VSB<1/4
LAKEVILLE      FOG       66  66 100 CALM      29.99R VSB 1/2
EDEN PRAIRIE   FOG       68  66  93 S3        29.98R VSB 1/2
SOUTH ST PAUL  FOG       68  67  99 CALM      29.98R VSB 1/4
LAKE ELMO      FOG       63  63 100 CALM      29.99R VSB<1/4
$$
MNZ001>005-007-008-013>017-022>024-027-028-201200-
   Northwest Minnesota

CITY           SKY/WX    TMP DP  RH WIND       PRES   REMARKS
BEMIDJI        CLOUDY    61  60  99 W3        29.98R FOG
HALLOCK        CLEAR     55  54  94 NW3       29.99R
ROSEAU         CLEAR     57  54  88 CALM      29.98R
WARROAD        CLEAR     57  54  88 W5        29.98R
THIEF RVR FALL CLEAR     59  58  96 N8        29.98R
CROOKSTON      CLEAR     57  57 100 N7        29.97F
FOSSTON        FOG       55  54  94 CALM      29.99R VSB<1/4
DETROIT LAKES  FOG       63  61  94 CALM      30.00S VSB<1/4
MOORHEAD       FOG       55  55 100 CALM      29.99R VSB 1/4
PARK RAPIDS    FOG       58  56  93 W5        29.99R VSB<1/4
MAHNOMEN       FOG       58  58  99 CALM      29.99R VSB<1/4
$$
MNZ006-009>011-018-025>026-201200-
   North Central Minnesota

CITY           SKY/WX    TMP DP  RH WIND       PRES   REMARKS
BAUDETTE       CLEAR     60  60 100 W7        29.95R FOG
FLAG ISLAND    CLEAR     64  61  88 NW8       29.94R
INTL FALLS     FOG       55  55 100 CALM      29.93R VSB 1/4
WASKISH        CLEAR     66  63  88 NW7       29.96R
BIG FORK       FOG       61  59  94 CALM      29.95S VSB 1/4
LONGVILLE      FOG       57  55  94 CALM      29.97R VSB<1/4
GRAND RAPIDS   CLEAR     64  63  96 NW5       29.98R
CRANE LAKE     CLEAR     52  52 100 CALM      29.94R
ORR            CLEAR     59  55  88 CALM      29.92R
COOK           CLEAR     57  57 100 CALM      29.95R
WALKER         FOG       60  60  99 W3        29.98R VSB<1/4
$$
MNZ012-019>021-037-201200-
   Northeast Minnesota

CITY           SKY/WX    TMP DP  RH WIND       PRES   REMARKS
DULUTH         CLEAR     63  62  97 W6        29.94S
ELY            CLEAR     57  55  94 CALM      29.93S FOG
HIBBING        PTCLDY    49  49 100 CALM      29.95R
EVELETH        CLOUDY    58  56  91 SW5       29.96R
DULUTH HARBOR  CLEAR     61  57  88 SW7       29.93S
TWO HARBORS    CLEAR     63  55  77 W3        29.91S
SILVER BAY     CLEAR     52  50  93 CALM      29.91S
GRAND MARAIS     N/A     53  52  96 W3        29.89R
G MARAIS ARPRT CLEAR     57  52  82 CALM      29.93S
$$
MNZ029>031-032-039>041-046>048-054>057-064-201200-
   West Central Minnesota

CITY           SKY/WX    TMP DP  RH WIND       PRES   REMARKS
FERGUS FALLS   FOG       63  63 100 CALM      29.99R VSB 1
WHEATON        FOG       61  61 100 CALM      30.01R VSB 1/4
MORRIS         FOG       61  61 100 CALM      29.98F VSB<1/4
ALEXANDRIA     CLEAR     62  60  93 SW3       30.02R
ELBOW LAKE     FOG       59  59 100 S3        30.01R VSB 1/4
WADENA         CLOUDY    57  57 100 CALM      29.99R VSB<1/4
GLENWOOD       CLEAR     59  59 100 W5        30.01S FOG
APPLETON       FOG       63  61  94 CALM      29.99S VSB 1/4
BENSON         FOG       59  57  94 CALM      30.02R VSB 1/4
ORTONVILLE     FOG       64  63  94 MISG      30.00R VSB 1
MADISON        FOG       64  64 100 CALM      29.99S VSB 1/4
WILLMAR        FOG       64  64 100 CALM      30.01R VSB 1/4
$$
MNZ033>034-036-042>043-049>051-058-059-201200-
   Central Minnesota

CITY           SKY/WX    TMP DP  RH WIND       PRES   REMARKS
ST CLOUD       FOG       59  59 100 CALM      29.98S VSB 1/4
SAUK CENTRE    FAIR      55  55 100 CALM      30.01R FOG
PAYNESVILLE    FOG       59  60 100 CALM      30.01R VSB<1/4
AITKIN         FOG       52  50  93 SW6       29.97R VSB 3/4
PINE RIVER     FOG       54  54 100 CALM      30.02R VSB 1/4
BRAINERD       CLEAR     58  58 100 CALM      29.98R FOG
STAPLES        FOG       57  57 100 CALM      29.99S VSB<1/4
LONG PRAIRIE   FAIR      57  57 100 CALM      30.01R FOG
LITTLE FALLS   CLEAR     55  54  94 CALM      30.01R FOG
LITCHFIELD     CLOUDY    66  66 100 CALM      30.00R
BUFFALO        CLEAR     65  64  94 CALM      29.99R FOG
MAPLE LAKE     FOG       66  65  99 CALM      30.00R VSB 1/4
HUTCHINSON       N/A     65  65 100 NW3       30.00R FOG
$$
MNZ037-044-045-052-053-201200-
   East Central Minnesota

CITY           SKY/WX    TMP DP  RH WIND       PRES   REMARKS
PRINCETON      FOG       61  61 100 CALM      29.98R VSB 1
MORA           CLEAR     59  57  94 CALM      29.99S
CAMBRIDGE      CLEAR     63  59  88 CALM      29.96R FOG
RUSH CITY      FOG       60  59  97 CALM      29.97S VSB 1
MOOSE LAKE       N/A     54  52  94 SW3       29.96R FOG
HINCKLEY       FAIR      59  59 100 CALM      29.96S FOG
CLOQUET        CLOUDY    61  57  88 W6        29.95S
MCGREGOR       CLOUDY    55  54  94 CALM      29.97R
$$
MNZ071>073-080-081-089-090-097-098-201200-
   Southwest Minnesota

CITY           SKY/WX    TMP DP  RH WIND       PRES   REMARKS
MONTEVIDEO     FOG       63  61  94 N3        29.99S VSB 3/4
GRANITE FALLS  CLOUDY    65  65  98 CALM      30.00F FOG
CANBY            N/A     65  64  96 CALM      30.01S FOG
MARSHALL       CLOUDY    68  68 100 NW3       29.99R FOG
REDWOOD FALLS  FOG       67  66  97 N6        29.97S VSB 3/4
OLIVIA         PTCLDY    63  61  94 CALM      29.99R FOG
PIPESTONE      CLOUDY    70  66  88 CALM      30.01R
WINDOM         CLOUDY    66  64  94 N3        29.98R FOG
WORTHINGTON    PTCLDY    67  66  97 NW5       30.01R FOG
JACKSON        MOCLDY    66  66 100 CALM      29.98S FOG
TRACY          CLOUDY    68  69 100 CALM      30.00R FOG
SLAYTON        HVY RAIN  67  65  94 CALM      30.01R
$$
MNZ065>067-074>077-082>085-091>093-201200-
   South Central Minnesota

CITY           SKY/WX    TMP DP  RH WIND       PRES   REMARKS
MANKATO        MOCLDY    68  67  96 N6        29.98R
NEW ULM        CLOUDY    68  66  94 N3        29.98R
ST JAMES       CLOUDY    66  66 100 N5        29.97F FOG
FAIRMONT       MOCLDY    68  67  96 N6        29.98R
GLENCOE        CLOUDY    66  66 100 N3        29.97S FOG
FARIBAULT      MOCLDY    68  68 100 CALM      29.98R FOG
OWATONNA       CLOUDY    70  66  88 E6        29.98R
WASECA         PTCLDY    68  64  88 NE3       29.98R FOG
ALBERT LEA     CLOUDY    70  68  94 CALM      29.96R FOG
$$
MNZ078>079-086>088-094>096-201200-
   Southeast Minnesota

CITY           SKY/WX    TMP DP  RH WIND       PRES   REMARKS
ROCHESTER      CLOUDY    69  69 100 SE8       29.99R
RED WING       CLOUDY    70  66  88 CALM      29.96R FOG
STANTON        FOG       70  68  94 CALM      29.97R VSB 3/4
DODGE CENTER   CLOUDY    68  66  94 E3        29.98R FOG
WINONA         CLOUDY    73  73 100 CALM      29.98R
AUSTIN         CLOUDY    72  68  88 E8        29.96R
PRESTON        CLOUDY    67  65  93 SE7       30.00R
$$
ABBREVIATIONS USED IN REMARKS
   TC - TEMPERATURES IN CELSIUS
  WCI - WIND CHILL INDEX
   HX - HEAT INDEX
  VSB - VISIBILITY
$$




USA.gov is the U.S. government's official web portal to all federal, state and local government web resources and services.